This demonstration page uses our WeatherBlox Daily Observations layout. Learn more.

Left ArrowRight Arrow

41.12389, -100.76542

Hourly Observations for December 14, 2016

Temp ( °F °C ) Dew Point ( °F °C ) Humidity (%) Winds ( mph kmh ) Pressure ( in mb ) Visibility ( mi km ) Precip ( " mm )
12:53 am 00:53 Clear 7 -13.9 4 -15.6 87 87 Calm 30.22 1024 10 16 0.00 0.00
1:53 am 01:53 Clear 10 -12.2 4 -15.6 76 76 NW 6 9 30.25 1024 10 16 0.00 0.00
2:53 am 02:53 Clear 14 -10 6 -14.4 71 71 NNE 9 15 30.29 1026 10 16 0.00 0.00
3:53 am 03:53 Clear 11 -11.7 4 -15.6 73 73 Calm 30.32 1027 10 16 0.00 0.00
4:53 am 04:53 Clear 12 -11.1 3 -16.1 67 67 N 6 9 30.35 1028 10 16 0.00 0.00
5:53 am 05:53 Clear 12 -11.1 2 -16.7 64 64 Calm 30.39 1029 10 16 0.00 0.00
6:53 am 06:53 Clear 8 -13.3 2 -16.7 76 76 NW 6 9 30.43 1030 10 16 0.00 0.00
7:53 am 07:53 Clear 9 -12.8 3 -16.1 77 77 NNW 7 11 30.43 1031 10 16 0.00 0.00
8:53 am 08:53 Sunny 13 -10.6 5 -15 70 70 NW 3 6 30.45 1031 10 16 0.00 0.00
9:53 am 09:53 Sunny 16 -8.9 6 -14.4 65 65 NNW 5 7 30.48 1032 10 16 0.00 0.00
10:53 am 10:53 Sunny 21 -6.1 1 -17.2 41 41 N 9 15 30.49 1033 10 16 0.00 0.00
11:53 am 11:53 Sunny 23 -5 2 -16.7 40 40 NW 7 11 30.49 1032 10 16 0.00 0.00
12:53 pm 12:53 Sunny 24 -4.4 2 -16.7 38 38 WNW 10 17 30.47 1032 10 16 0.00 0.00
1:53 pm 13:53 Sunny 25 -3.9 1 -17.2 35 35 WNW 9 15 30.45 1031 10 16 0.00 0.00
2:53 pm 14:53 Mostly Cloudy 25 -3.9 0 -17.8 33 33 WNW 5 7 30.43 1031 10 16 0.00 0.00
3:53 pm 15:53 Sunny 25 -3.9 1 -17.2 35 35 SSW 6 9 30.44 1031 10 16 0.00 0.00
4:53 pm 16:53 Sunny 23 -5 3 -16.1 42 42 Calm 30.43 1031 10 16 0.00 0.00
5:53 pm 17:53 Partly Cloudy 16 -8.9 2 -16.7 54 54 Calm 30.46 1032 10 16 0.00 0.00
6:53 pm 18:53 Partly Cloudy 14 -10 1 -17.2 56 56 Calm 30.48 1032 10 16 0.00 0.00
7:53 pm 19:53 Mostly Cloudy 13 -10.6 2 -16.7 61 61 Calm 30.48 1032 10 16 0.00 0.00
8:53 pm 20:53 Mostly Cloudy 14 -10 4 -15.6 64 64 NE 3 6 30.48 1032 10 16 0.00 0.00
9:53 pm 21:53 Cloudy 16 -8.9 4 -15.6 59 59 Calm 30.48 1032 10 16 0.00 0.00
10:53 pm 22:53 Cloudy 17 -8.3 4 -15.6 56 56 Calm 30.45 1031 10 16 0.00 0.00
11:53 pm 23:53 Cloudy 18 -7.8 8 -13.3 65 65 E 3 6 30.45 1031 10 16 0.00 0.00

Powered by AerisWeather